Printer-friendly version

IAU Minor Planet Center

Minor Planet Center

MPEC 2009-M36 : 2009 MX6

The following Minor Planet Electronic Circular may be linked-to from your own Web pages, but must not otherwise be redistributed electronically.


Read MPEC 2009-M35


M.P.E.C. 2009-M36                                Issued 2009 June 25, 15:05 UT

     The Minor Planet Electronic Circulars contain information on unusual
         minor planets and routine data on comets.  They are published
   on behalf of Commission 20 of the International Astronomical Union by the
          Minor Planet Center, Smithsonian Astrophysical Observatory,
                          Cambridge, MA 02138, U.S.A.

             Prepared using the Tamkin Foundation Computer Network

                              MPC@CFA.HARVARD.EDU
          URL http://www.cfa.harvard.edu/iau/mpc.html  ISSN 1523-6714

                                   2009 MX6

Observations:
     K09M06X*QC2009 06 24.53055 16 33 59.41 -24 33 22.8          17.8 V EM036E12
     K09M06X QC2009 06 24.54144 16 33 57.92 -24 33 05.3          17.7 V EM036E12
     K09M06X QC2009 06 24.55225 16 33 56.46 -24 32 47.8          17.8 V EM036E12
     K09M06X QC2009 06 24.56304 16 33 55.00 -24 32 30.0          17.8 V EM036E12
     K09M06X QC2009 06 24.64312 16 33 44.22 -24 30 18.0          17.9 V EM036E12
     K09M06X QC2009 06 24.64552 16 33 43.92 -24 30 14.1          17.8 V EM036E12
     K09M06X QC2009 06 24.64788 16 33 43.60 -24 30 10.3          17.7 V EM036E12
     K09M06X QC2009 06 24.68244 16 33 39.03 -24 29 12.3          17.9 V EM036E12
     K09M06X  C2009 06 25.04566 16 32 54.57 -24 19 28.1          18.4 R EM036I77
     K09M06X  C2009 06 25.05352 16 32 53.59 -24 19 15.0          18.2 R EM036I77
     K09M06X  C2009 06 25.05561 16 32 53.25 -24 19 11.0          18.4 R EM036I77
     K09M06X  C2009 06 25.12515 16 32 44.88 -24 17 36.8          17.9 R EM036850
     K09M06X  C2009 06 25.13968 16 32 42.94 -24 17 12.8          18.1 R EM036850
     K09M06X  C2009 06 25.15609 16 32 40.71 -24 16 45.7          17.8 R EM036850
     K09M06X QC2009 06 25.43394 16 32 06.26 -24 08 39.0          17.8 V EM036E12
     K09M06X QC2009 06 25.43572 16 32 06.031-24 08 36.35         17.9 V EM036E12
     K09M06X QC2009 06 25.56634 16 31 48.25 -24 04 58.5          17.8 V EM036E12
     K09M06X QC2009 06 25.57281 16 31 47.37 -24 04 47.5          17.8 V EM036E12

Observer details:
850 Cordell-Lorenz Observatory, Sewanee.  Observers D. T. Durig, P. Kharel.
    Measurers D. T. Durig, A. M. Moscoso, R. N. Carpenetti, S. R. McCutcheon,
    L. C. White.  0.30-m f/2.5 Schmidt-Cassegrain + 765x510 CCD.
E12 Siding Spring Survey.  Observer R. H. McNaught.  Measurers R. H. McNaught,
    E. C. Beshore, A. Boattini, G. J. Garradd, A. R. Gibbs, A. D. Grauer,
    R. E. Hill, R. A. Kowalski, S. M. Larson.  0.5-m Uppsala Schmidt + CCD.
I77 CEAMIG-REA Observatory, Belo Horizonte.  Observers C. Jacques, E. Pimentel.
    Measurer C. Jacques.  0.30-m f/3.0 reflector + CCD.

Orbital elements:
2009 MX6                                                 Earth MOID = 0.0928 AU
Epoch 2009 June 18.0 TT = JDT 2455000.5                 MPC
M 334.31603              (2000.0)            P               Q
n   0.30561210     Peri.   76.49760     +0.96532641     +0.20654456
a   2.1828423      Node   271.40702     -0.25429389     +0.88221566
e   0.5700124      Incl.    9.18867     +0.05898760     +0.42312514
P   3.23           H   18.8           G   0.15           U   8
Residuals in seconds of arc
090624 E12  0.0   0.1+    090624 E12  0.1+  0.1-    090625 850  0.1+  0.1-
090624 E12  0.1-  0.1-    090624 E12  0.0   0.2+    090625 850  0.0   0.0
090624 E12  0.0   0.2-    090625 I77  0.6-  0.0     090625 E12  0.0   0.1+
090624 E12  0.0   0.0     090625 I77  0.8+  0.2+    090625 E12  0.2+  0.2-
090624 E12  0.1-  0.1+    090625 I77  0.1+  0.8+    090625 E12  0.0   0.0
090624 E12  0.2+  0.0     090625 850  0.3-  0.3-    090625 E12  0.1-  0.0

Ephemeris:
2009 MX6                 a,e,i = 2.18, 0.57, 9                   q = 0.9386
Date    TT    R. A. (2000) Decl.     Delta      r     Elong.  Phase     V
2009 06 18    16 47.40   -27 09.2    0.394    1.402   166.3     9.9    18.2
2009 06 28    16 26.69   -22 54.3    0.334    1.322   152.3    21.0    18.1
2009 07 08    16 06.44   -17 05.9    0.289    1.244   136.9    33.9    18.0
2009 07 18    15 49.29   -09 51.4    0.255    1.169   121.4    47.9    18.0
2009 07 28    15 36.33   -01 15.3    0.227    1.101   106.3    62.3    18.0
2009 08 07    15 26.44   +09 01.9    0.202    1.040    91.8    77.0    18.1
2009 08 17    15 15.73   +21 42.5    0.181    0.992    78.2    91.5    18.3
2009 08 27    14 56.76   +37 07.6    0.167    0.957    66.8   103.9    18.6
2009 09 06    14 12.95   +53 36.5    0.164    0.940    61.2   110.0    18.9
2009 09 16    12 32.80   +65 49.3    0.174    0.942    63.9   106.5    18.8

Sonia Keys                   (C) Copyright 2009 MPC           M.P.E.C. 2009-M36

Read MPEC 2009-M35

Valid HTML 4.01!